| time (UTC) | temp F | wind direction | speed MPH | gust MPH | rain 1hr in | rain 24hr in | rain mn in | humidity % | barometer mb |
| 20260506174843 | 66 | 184 | 4.0 | 8.0 | 0.00 | 0.24 | 0.00 | 66 | 1012.3 |
| 20260506174334 | 66 | 153 | 5.0 | 8.0 | 0.00 | 0.24 | 0.00 | 66 | 1012.2 |
| 20260506173843 | 66 | 182 | 3.0 | 7.0 | 0.00 | 0.24 | 0.00 | 66 | 1012.1 |
| 20260506173333 | 66 | 178 | 4.0 | 7.0 | 0.00 | 0.24 | 0.00 | 65 | 1012.2 |
| 20260506172838 | 67 | 163 | 2.0 | 8.0 | 0.00 | 0.24 | 0.00 | 64 | 1012.2 |
| 20260506172331 | 67 | 184 | 0.0 | 0.0 | 0.00 | 0.24 | 0.00 | 64 | 1012.1 |
| 20260506171837 | 67 | 183 | 0.0 | 0.0 | 0.00 | 0.24 | 0.00 | 64 | 1012.1 |
| 20260506171330 | 67 | 196 | 0.0 | 0.0 | 0.00 | 0.24 | 0.00 | 63 | 1012.1 |
| 20260506170349 | 67 | 204 | 0.0 | 0.0 | 0.00 | 0.24 | 0.00 | 64 | 1012.2 |
| 20260506165844 | 66 | 204 | 0.0 | 0.0 | 0.00 | 0.24 | 0.00 | 64 | 1012.2 |
| 20260506165335 | 66 | 196 | 0.0 | 0.0 | 0.00 | 0.24 | 0.00 | 64 | 1012.2 |
| 20260506164334 | 66 | 188 | 0.0 | 0.0 | 0.00 | 0.24 | 0.00 | 65 | 1012.3 |
| 20260506163331 | 66 | 186 | 0.0 | 0.0 | 0.00 | 0.24 | 0.00 | 64 | 1012.5 |
| 20260506162836 | 66 | 186 | 0.0 | 0.0 | 0.00 | 0.24 | 0.00 | 64 | 1012.5 |
| 20260506162348 | 66 | 180 | 0.0 | 8.0 | 0.00 | 0.24 | 0.00 | 64 | 1012.5 |
| 20260506161830 | 66 | 180 | 3.0 | 9.0 | 0.00 | 0.24 | 0.00 | 64 | 1012.5 |
| 20260506161341 | 66 | 167 | 4.0 | 9.0 | 0.00 | 0.24 | 0.00 | 63 | 1012.5 |
| 20260506160339 | 67 | 175 | 3.0 | 9.0 | 0.00 | 0.24 | 0.00 | 61 | 1012.5 |
| 20260506155834 | 67 | 209 | 2.0 | 10.0 | 0.00 | 0.24 | 0.00 | 61 | 1012.5 |
| 20260506155347 | 67 | 151 | 4.0 | 8.0 | 0.00 | 0.24 | 0.00 | 61 | 1012.5 |
| 20260506154833 | 67 | 167 | 0.0 | 5.0 | 0.00 | 0.24 | 0.00 | 60 | 1012.6 |
| 20260506154345 | 67 | 204 | 0.0 | 7.0 | 0.00 | 0.24 | 0.00 | 59 | 1012.7 |
| 20260506153848 | 67 | 198 | 4.0 | 8.0 | 0.00 | 0.24 | 0.00 | 60 | 1012.7 |
| 20260506153339 | 67 | 179 | 4.0 | 8.0 | 0.00 | 0.24 | 0.00 | 58 | 1012.8 |
| 20260506152845 | 67 | 192 | 4.0 | 9.0 | 0.00 | 0.24 | 0.00 | 55 | 1012.8 |
| 20260506152336 | 67 | 192 | 5.0 | 9.0 | 0.00 | 0.24 | 0.00 | 55 | 1012.7 |
| 20260506151840 | 67 | 167 | 2.0 | 8.0 | 0.00 | 0.24 | 0.00 | 55 | 1012.7 |
| 20260506151332 | 67 | 163 | 3.0 | 8.0 | 0.00 | 0.24 | 0.00 | 55 | 1012.7 |
| 20260506150840 | 67 | 178 | 4.0 | 8.0 | 0.00 | 0.24 | 0.00 | 55 | 1012.8 |
| 20260506150333 | 67 | 185 | 4.0 | 8.0 | 0.00 | 0.24 | 0.00 | 59 | 1012.8 |
| 20260506145831 | 67 | 199 | 5.0 | 8.0 | 0.00 | 0.24 | 0.00 | 59 | 1012.8 |
| 20260506145343 | 67 | 169 | 5.0 | 10.0 | 0.00 | 0.24 | 0.00 | 58 | 1012.8 |
| 20260506143835 | 67 | 172 | 4.0 | 10.0 | 0.00 | 0.24 | 0.00 | 60 | 1012.8 |
| 20260506143346 | 67 | 167 | 5.0 | 10.0 | 0.00 | 0.24 | 0.00 | 59 | 1012.9 |
| 20260506142831 | 67 | 163 | 5.0 | 10.0 | 0.00 | 0.24 | 0.00 | 60 | 1012.9 |
| 20260506142341 | 67 | 88 | 5.0 | 9.0 | 0.00 | 0.24 | 0.00 | 60 | 1013.0 |
| 20260506141343 | 67 | 170 | 5.0 | 9.0 | 0.00 | 0.24 | 0.00 | 60 | 1013.0 |
| 20260506140832 | 68 | 133 | 5.0 | 9.0 | 0.00 | 0.24 | 0.00 | 58 | 1013.0 |
| 20260506140344 | 68 | 155 | 2.0 | 8.0 | 0.00 | 0.24 | 0.00 | 60 | 1013.1 |
| 20260506135840 | 67 | 178 | 4.0 | 10.0 | 0.00 | 0.24 | 0.00 | 59 | 1013.1 |
| 20260506134841 | 67 | 102 | 5.0 | 11.0 | 0.00 | 0.24 | 0.00 | 59 | 1013.2 |
| 20260506134331 | 68 | 140 | 4.0 | 9.0 | 0.00 | 0.24 | 0.00 | 55 | 1013.1 |
| 20260506133836 | 68 | 132 | 5.0 | 10.0 | 0.00 | 0.24 | 0.00 | 55 | 1013.2 |
| 20260506133331 | 68 | 150 | 4.0 | 8.0 | 0.00 | 0.24 | 0.00 | 53 | 1013.1 |
| 20260506132838 | 69 | 152 | 4.0 | 8.0 | 0.00 | 0.24 | 0.00 | 52 | 1013.0 |
| 20260506132330 | 69 | 182 | 0.0 | 7.0 | 0.00 | 0.24 | 0.00 | 51 | 1013.1 |
| 20260506131836 | 69 | 180 | 3.0 | 8.0 | 0.00 | 0.24 | 0.00 | 51 | 1013.0 |
| 20260506131346 | 68 | 150 | 2.0 | 9.0 | 0.00 | 0.24 | 0.00 | 53 | 1013.1 |
| 20260506130833 | 68 | 161 | 5.0 | 11.0 | 0.00 | 0.24 | 0.00 | 52 | 1013.1 |
| 20260506130345 | 69 | 122 | 5.0 | 11.0 | 0.00 | 0.24 | 0.00 | 52 | 1013.2 |
| 20260506125840 | 68 | 144 | 4.0 | 11.0 | 0.00 | 0.24 | 0.00 | 53 | 1013.1 |
| 20260506125332 | 68 | 163 | 5.0 | 11.0 | 0.00 | 0.24 | 0.00 | 52 | 1013.2 |
| 20260506124840 | 68 | 156 | 3.0 | 10.0 | 0.00 | 0.24 | 0.00 | 53 | 1013.3 |
| 20260506123841 | 68 | 157 | 4.0 | 10.0 | 0.00 | 0.24 | 0.00 | 52 | 1013.3 |
| 20260506123333 | 68 | 140 | 5.0 | 9.0 | 0.00 | 0.24 | 0.00 | 51 | 1013.3 |
| 20260506122839 | 68 | 143 | 4.0 | 7.0 | 0.00 | 0.24 | 0.00 | 51 | 1013.4 |
| 20260506121836 | 68 | 113 | 5.0 | 11.0 | 0.00 | 0.24 | 0.00 | 50 | 1013.4 |
| 20260506121328 | 68 | 144 | 4.0 | 10.0 | 0.00 | 0.24 | 0.00 | 50 | 1013.4 |
| 20260506120837 | 68 | 153 | 5.0 | 13.0 | 0.00 | 0.24 | 0.00 | 51 | 1013.4 |
| 20260506120330 | 69 | 125 | 5.0 | 13.0 | 0.00 | 0.24 | 0.00 | 51 | 1013.4 |
| 20260506115335 | 68 | 143 | 8.0 | 12.0 | 0.00 | 0.24 | 0.00 | 51 | 1013.5 |
| 20260506114333 | 68 | 61 | 2.0 | 13.0 | 0.00 | 0.24 | 0.00 | 52 | 1013.7 |
| 20260506113840 | 67 | 105 | 5.0 | 13.0 | 0.00 | 0.24 | 0.00 | 52 | 1013.6 |
| 20260506113333 | 68 | 66 | 4.0 | 12.0 | 0.00 | 0.24 | 0.00 | 52 | 1013.7 |
| 20260506112838 | 68 | 155 | 8.0 | 11.0 | 0.00 | 0.24 | 0.00 | 52 | 1013.7 |
| 20260506112332 | 68 | 46 | 0.0 | 8.0 | 0.00 | 0.24 | 0.00 | 51 | 1013.8 |
| 20260506111838 | 68 | 130 | 4.0 | 10.0 | 0.00 | 0.24 | 0.00 | 51 | 1013.8 |
| 20260506110838 | 67 | 68 | 0.0 | 7.0 | 0.00 | 0.24 | 0.00 | 52 | 1013.9 |
| 20260506105845 | 66 | 161 | 5.0 | 10.0 | 0.00 | 0.24 | 0.00 | 54 | 1013.9 |
| 20260506105336 | 66 | 135 | 4.0 | 10.0 | 0.00 | 0.24 | 0.00 | 55 | 1014.0 |
| 20260506104840 | 66 | 59 | 5.0 | 8.0 | 0.00 | 0.24 | 0.00 | 54 | 1014.0 |
| 20260506104332 | 66 | 152 | 4.0 | 9.0 | 0.00 | 0.24 | 0.00 | 54 | 1014.0 |
| 20260506103839 | 66 | 148 | 3.0 | 9.0 | 0.00 | 0.24 | 0.00 | 55 | 1014.1 |
| 20260506102333 | 66 | 151 | 0.0 | 7.0 | 0.00 | 0.24 | 0.00 | 54 | 1014.1 |
| 20260506101838 | 66 | 167 | 2.0 | 8.0 | 0.00 | 0.24 | 0.00 | 55 | 1014.1 |
| 20260506101330 | 66 | 152 | 3.0 | 9.0 | 0.00 | 0.24 | 0.00 | 56 | 1014.2 |
| 20260506100833 | 65 | 149 | 3.0 | 7.0 | 0.00 | 0.24 | 0.00 | 57 | 1014.2 |
| 20260506095844 | 65 | 136 | 5.0 | 9.0 | 0.00 | 0.24 | 0.00 | 57 | 1014.3 |
| 20260506095336 | 65 | 159 | 4.0 | 9.0 | 0.00 | 0.24 | 0.00 | 57 | 1014.3 |
| 20260506094842 | 66 | 155 | 6.0 | 9.0 | 0.00 | 0.24 | 0.00 | 56 | 1014.3 |
| 20260506094333 | 66 | 115 | 3.0 | 7.0 | 0.00 | 0.24 | 0.00 | 56 | 1014.3 |
| 20260506093332 | 67 | 66 | 0.0 | 0.0 | 0.00 | 0.24 | 0.00 | 50 | 1014.2 |
| 20260506092840 | 67 | 27 | 0.0 | 0.0 | 0.00 | 0.24 | 0.00 | 50 | 1014.2 |
| 20260506092331 | 67 | 26 | 0.0 | 0.0 | 0.00 | 0.24 | 0.00 | 50 | 1014.2 |
| 20260506091346 | 67 | 218 | 0.0 | 0.0 | 0.00 | 0.24 | 0.00 | 52 | 1014.2 |
| 20260506090832 | 66 | 292 | 0.0 | 0.0 | 0.00 | 0.24 | 0.00 | 51 | 1014.3 |
| 20260506090344 | 66 | 347 | 0.0 | 0.0 | 0.00 | 0.24 | 0.00 | 53 | 1014.2 |
| 20260506084837 | 65 | 273 | 2.0 | 7.0 | 0.00 | 0.24 | 0.00 | 53 | 1014.2 |
| 20260506084348 | 65 | 319 | 1.0 | 6.0 | 0.00 | 0.24 | 0.00 | 54 | 1014.3 |
| 20260506083349 | 65 | 357 | 3.0 | 9.0 | 0.00 | 0.24 | 0.00 | 55 | 1014.1 |
| 20260506082837 | 65 | 26 | 6.0 | 9.0 | 0.00 | 0.24 | 0.00 | 55 | 1014.1 |
| 20260506082348 | 64 | 325 | 4.0 | 8.0 | 0.00 | 0.24 | 0.00 | 55 | 1014.1 |
| 20260506081832 | 64 | 267 | 2.0 | 8.0 | 0.00 | 0.24 | 0.00 | 56 | 1014.0 |
| 20260506081343 | 64 | 357 | 0.0 | 8.0 | 0.00 | 0.24 | 0.00 | 56 | 1014.0 |
| 20260506080832 | 64 | 13 | 5.0 | 8.0 | 0.00 | 0.24 | 0.00 | 56 | 1014.0 |
| 20260506080346 | 63 | 310 | 4.0 | 7.0 | 0.00 | 0.24 | 0.00 | 56 | 1014.0 |
| 20260506073339 | 62 | 24 | 4.0 | 8.0 | 0.00 | 0.24 | 0.00 | 58 | 1014.1 |
| 20260506072848 | 62 | 28 | 4.0 | 7.0 | 0.00 | 0.24 | 0.00 | 58 | 1014.1 |
| 20260506072339 | 62 | 335 | 3.0 | 6.0 | 0.00 | 0.24 | 0.00 | 59 | 1014.1 |
| 20260506071845 | 61 | 41 | 3.0 | 6.0 | 0.00 | 0.24 | 0.00 | 60 | 1014.0 |
| 20260506071335 | 61 | 41 | 0.0 | 9.0 | 0.00 | 0.24 | 0.00 | 62 | 1013.9 |
| 20260506070842 | 61 | 340 | 5.0 | 9.0 | 0.00 | 0.24 | 0.00 | 62 | 1013.9 |
| 20260506070333 | 61 | 329 | 4.0 | 9.0 | 0.00 | 0.24 | 0.00 | 62 | 1013.7 |
| 20260506062331 | 58 | 299 | 3.0 | 9.0 | 0.00 | 0.24 | 0.00 | 66 | 1013.5 |
| 20260506061839 | 58 | 338 | 5.0 | 9.0 | 0.00 | 0.24 | 0.00 | 66 | 1013.4 |
| 20260506061331 | 58 | 335 | 4.0 | 13.0 | 0.00 | 0.24 | 0.00 | 66 | 1013.4 |
| 20260506060840 | 58 | 336 | 6.0 | 13.0 | 0.00 | 0.24 | 0.00 | 66 | 1013.3 |
| 20260506060331 | 58 | 7 | 6.0 | 12.0 | 0.00 | 0.24 | 0.00 | 65 | 1013.3 |
| 20260506051347 | 56 | 344 | 6.0 | 12.0 | 0.00 | 0.24 | 0.00 | 70 | 1012.7 |
| 20260506050347 | 55 | 305 | 6.0 | 10.0 | 0.00 | 0.24 | 0.00 | 73 | 1012.7 |
| 20260506044339 | 53 | 2 | 3.0 | 9.0 | 0.00 | 0.24 | 0.00 | 78 | 1012.9 |
| 20260506043845 | 53 | 295 | 6.0 | 9.0 | 0.00 | 0.24 | 0.00 | 77 | 1012.9 |
| 20260506043338 | 54 | 287 | 5.0 | 9.0 | 0.00 | 0.24 | 0.00 | 77 | 1012.9 |
| 20260506042844 | 54 | 295 | 5.0 | 9.0 | 0.00 | 0.24 | 0.00 | 76 | 1012.9 |
| 20260506041842 | 54 | 300 | 6.0 | 10.0 | 0.00 | 0.24 | 0.00 | 75 | 1013.0 |
| 20260506041332 | 54 | 303 | 5.0 | 10.0 | 0.00 | 0.24 | 0.00 | 75 | 1012.9 |
| 20260506040840 | 55 | 277 | 5.0 | 10.0 | 0.00 | 0.24 | 0.00 | 74 | 1012.9 |
| 20260506040350 | 55 | 284 | 5.0 | 10.0 | 0.00 | 0.24 | 0.00 | 74 | 1012.9 |
| 20260506035849 | 55 | 296 | 4.0 | 9.0 | 0.00 | 0.24 | 0.00 | 74 | 1012.9 |
| 20260506035339 | 55 | 283 | 5.0 | 8.0 | 0.00 | 0.24 | 0.00 | 75 | 1013.0 |
| 20260506034845 | 55 | 286 | 4.0 | 9.0 | 0.00 | 0.24 | 0.00 | 75 | 1013.0 |
| 20260506034336 | 55 | 310 | 4.0 | 9.0 | 0.00 | 0.24 | 0.00 | 76 | 1013.0 |
| 20260506033840 | 54 | 313 | 3.0 | 10.0 | 0.00 | 0.24 | 0.00 | 76 | 1013.1 |
| 20260506033332 | 55 | 293 | 5.0 | 10.0 | 0.00 | 0.24 | 0.00 | 76 | 1013.2 |
| 20260506032839 | 55 | 265 | 5.0 | 8.0 | 0.00 | 0.24 | 0.00 | 75 | 1013.2 |
| 20260506031332 | 55 | 295 | 4.0 | 9.0 | 0.00 | 0.24 | 0.00 | 74 | 1013.2 |
| 20260506030836 | 55 | 294 | 4.0 | 9.0 | 0.00 | 0.24 | 0.00 | 74 | 1013.2 |
| 20260506030348 | 55 | 267 | 3.0 | 9.0 | 0.00 | 0.24 | 0.00 | 74 | 1013.1 |
| 20260506025336 | 55 | 288 | 6.0 | 9.0 | 0.00 | 0.24 | 0.00 | 74 | 1013.1 |
| 20260506024843 | 55 | 290 | 6.0 | 9.0 | 0.00 | 0.24 | 0.00 | 74 | 1013.0 |
| 20260506023842 | 56 | 318 | 5.0 | 8.0 | 0.00 | 0.24 | 0.00 | 73 | 1013.0 |
| 20260506023333 | 57 | 276 | 4.0 | 8.0 | 0.00 | 0.24 | 0.00 | 71 | 1013.0 |
| 20260506022837 | 56 | 303 | 5.0 | 11.0 | 0.00 | 0.24 | 0.00 | 72 | 1012.9 |
| 20260506021331 | 56 | 283 | 5.0 | 10.0 | 0.00 | 0.24 | 0.00 | 74 | 1013.0 |
| 20260506020838 | 56 | 293 | 6.0 | 10.0 | 0.00 | 0.24 | 0.00 | 73 | 1012.9 |
| 20260506020331 | 57 | 286 | 3.0 | 6.0 | 0.00 | 0.24 | 0.00 | 71 | 1013.0 |
| 20260506015848 | 57 | 344 | 2.0 | 6.0 | 0.00 | 0.24 | 0.00 | 70 | 1012.9 |
| 20260506015339 | 58 | 333 | 2.0 | 6.0 | 0.00 | 0.24 | 0.00 | 69 | 1013.0 |
| 20260506014845 | 58 | 325 | 2.0 | 7.0 | 0.00 | 0.24 | 0.00 | 68 | 1012.9 |
| 20260506014335 | 58 | 236 | 3.0 | 7.0 | 0.00 | 0.24 | 0.00 | 68 | 1013.0 |
| 20260506013842 | 58 | 306 | 3.0 | 7.0 | 0.00 | 0.24 | 0.00 | 68 | 1013.0 |
| 20260506013333 | 58 | 357 | 3.0 | 9.0 | 0.00 | 0.24 | 0.00 | 69 | 1013.0 |
| 20260506012837 | 58 | 321 | 2.0 | 9.0 | 0.00 | 0.24 | 0.00 | 69 | 1012.9 |
| 20260506012347 | 58 | 333 | 5.0 | 10.0 | 0.00 | 0.24 | 0.00 | 69 | 1012.8 |
| 20260506011834 | 58 | 333 | 4.0 | 10.0 | 0.00 | 0.24 | 0.00 | 70 | 1012.8 |
| 20260506011347 | 58 | 328 | 4.0 | 9.0 | 0.00 | 0.24 | 0.00 | 70 | 1012.8 |
| 20260506010833 | 58 | 318 | 4.0 | 11.0 | 0.00 | 0.24 | 0.00 | 70 | 1012.9 |
| 20260506010343 | 58 | 2 | 5.0 | 11.0 | 0.00 | 0.24 | 0.00 | 70 | 1012.9 |
| 20260506005842 | 58 | 310 | 5.0 | 9.0 | 0.00 | 0.24 | 0.00 | 71 | 1012.9 |
| 20260506004841 | 57 | 298 | 5.0 | 9.0 | 0.00 | 0.24 | 0.00 | 74 | 1012.9 |
| 20260506004332 | 57 | 311 | 4.0 | 10.0 | 0.00 | 0.24 | 0.00 | 75 | 1013.0 |
| 20260506003837 | 57 | 319 | 5.0 | 10.0 | 0.00 | 0.24 | 0.00 | 75 | 1013.0 |
| 20260506003348 | 58 | 314 | 3.0 | 8.0 | 0.00 | 0.24 | 0.00 | 75 | 1013.0 |
| 20260506002834 | 58 | 305 | 4.0 | 9.0 | 0.00 | 0.24 | 0.00 | 76 | 1013.0 |
| 20260506001835 | 57 | 329 | 4.0 | 8.0 | 0.00 | 0.24 | 0.00 | 77 | 1013.0 |
| 20260506001329 | 58 | 303 | 3.0 | 8.0 | 0.00 | 0.24 | 0.00 | 76 | 1013.0 |
| 20260506000832 | 58 | 319 | 3.0 | 10.0 | 0.00 | 0.24 | 0.00 | 76 | 1013.1 |
| 20260506000343 | 58 | 321 | 5.0 | 10.0 | 0.00 | 0.24 | 0.00 | 76 | 1013.1 |
| 20260505235332 | 57 | 337 | 4.0 | 10.0 | 0.00 | 0.24 | 0.00 | 78 | 1013.2 |
| 20260505234840 | 57 | 357 | 4.0 | 10.0 | 0.00 | 0.24 | 0.00 | 79 | 1013.2 |
| 20260505234333 | 57 | 300 | 4.0 | 8.0 | 0.00 | 0.24 | 0.00 | 80 | 1013.2 |
| 20260505233840 | 57 | 344 | 3.0 | 8.0 | 0.00 | 0.24 | 0.00 | 81 | 1013.3 |
| 20260505233331 | 56 | 353 | 3.0 | 9.0 | 0.00 | 0.24 | 0.00 | 82 | 1013.2 |
| 20260505232838 | 56 | 285 | 2.0 | 8.0 | 0.00 | 0.24 | 0.00 | 84 | 1013.3 |
| 20260505232332 | 56 | 317 | 2.0 | 8.0 | 0.00 | 0.24 | 0.00 | 84 | 1013.4 |
| 20260505231838 | 56 | 290 | 0.0 | 3.0 | 0.00 | 0.24 | 0.00 | 83 | 1013.5 |
| 20260505231330 | 57 | 321 | 0.0 | 2.0 | 0.00 | 0.24 | 0.00 | 83 | 1013.5 |
| 20260505230836 | 57 | 327 | 0.0 | 0.0 | 0.00 | 0.24 | 0.00 | 83 | 1013.5 |
| 20260505230346 | 57 | 326 | 0.0 | 0.0 | 0.00 | 0.24 | 0.00 | 82 | 1013.5 |
| 20260505225842 | 57 | 327 | 0.0 | 0.0 | 0.00 | 0.24 | 0.00 | 81 | 1013.5 |
| 20260505224331 | 58 | 327 | 0.0 | 1.0 | 0.00 | 0.24 | 0.00 | 80 | 1013.5 |
| 20260505223839 | 58 | 328 | 0.0 | 0.0 | 0.00 | 0.24 | 0.00 | 79 | 1013.4 |
| 20260505223331 | 58 | 328 | 0.0 | 3.0 | 0.00 | 0.24 | 0.00 | 79 | 1013.3 |
| 20260505222838 | 58 | 328 | 1.0 | 6.0 | 0.00 | 0.24 | 0.00 | 79 | 1013.4 |
| 20260505222331 | 58 | 303 | 1.0 | 6.0 | 0.00 | 0.24 | 0.00 | 79 | 1013.4 |
| 20260505221329 | 58 | 317 | 1.0 | 3.0 | 0.00 | 0.24 | 0.00 | 81 | 1013.5 |
| 20260505220836 | 58 | 307 | 1.0 | 2.0 | 0.00 | 0.24 | 0.00 | 81 | 1013.6 |
| 20260505220348 | 58 | 304 | 0.0 | 3.0 | 0.00 | 0.24 | 0.00 | 82 | 1013.7 |
| 20260505215840 | 58 | 304 | 1.0 | 5.0 | 0.00 | 0.24 | 0.05 | 83 | 1013.7 |
| 20260505215333 | 58 | 316 | 1.0 | 7.0 | 0.00 | 0.24 | 0.05 | 84 | 1013.7 |
| 20260505214838 | 57 | 324 | 3.0 | 9.0 | 0.00 | 0.24 | 0.05 | 85 | 1013.7 |
| 20260505214331 | 57 | 334 | 5.0 | 9.0 | 0.00 | 0.24 | 0.05 | 86 | 1013.8 |
| 20260505213832 | 57 | 348 | 4.0 | 12.0 | 0.00 | 0.24 | 0.05 | 87 | 1013.8 |
| 20260505213345 | 57 | 331 | 5.0 | 12.0 | 0.00 | 0.24 | 0.05 | 87 | 1013.8 |
| 20260505212848 | 57 | 334 | 4.0 | 8.0 | 0.00 | 0.24 | 0.05 | 87 | 1013.8 |
| 20260505211343 | 57 | 294 | 2.0 | 5.0 | 0.00 | 0.24 | 0.05 | 88 | 1013.7 |
| 20260505210341 | 57 | 280 | 2.0 | 7.0 | 0.00 | 0.24 | 0.05 | 88 | 1013.5 |
| 20260505205836 | 57 | 285 | 3.0 | 7.0 | 0.00 | 0.24 | 0.05 | 89 | 1013.4 |
| 20260505205329 | 57 | 285 | 2.0 | 6.0 | 0.00 | 0.24 | 0.05 | 90 | 1013.4 |
| 20260505204837 | 57 | 299 | 2.0 | 6.0 | 0.00 | 0.24 | 0.05 | 90 | 1013.3 |
| 20260505204329 | 57 | 299 | 2.0 | 4.0 | 0.00 | 0.24 | 0.05 | 90 | 1013.2 |
| 20260505202837 | 58 | 283 | 2.0 | 6.0 | 0.00 | 0.24 | 0.05 | 91 | 1013.0 |
| 20260505202347 | 58 | 273 | 2.0 | 8.0 | 0.00 | 0.24 | 0.05 | 90 | 1013.1 |
| 20260505201343 | 58 | 303 | 2.0 | 5.0 | 0.00 | 0.24 | 0.05 | 89 | 1013.0 |
| 20260505200836 | 58 | 272 | 1.0 | 2.0 | 0.00 | 0.24 | 0.05 | 89 | 1012.8 |
| 20260505200345 | 58 | 273 | 0.0 | 2.0 | 0.00 | 0.24 | 0.05 | 88 | 1012.6 |
| 20260505195838 | 58 | 276 | 1.0 | 2.0 | 0.00 | 0.24 | 0.05 | 88 | 1012.6 |
| 20260505195328 | 58 | 279 | 0.0 | 1.0 | 0.04 | 0.24 | 0.05 | 87 | 1012.5 |
| 20260505194835 | 58 | 279 | 0.0 | 1.0 | 0.04 | 0.24 | 0.05 | 87 | 1012.2 |
| 20260505194326 | 58 | 279 | 0.0 | 3.0 | 0.08 | 0.24 | 0.05 | 86 | 1012.5 |
| 20260505193329 | 58 | 295 | 1.0 | 3.0 | 0.08 | 0.24 | 0.05 | 84 | 1012.9 |
| 20260505192348 | 58 | 331 | 1.0 | 6.0 | 0.12 | 0.24 | 0.05 | 83 | 1012.5 |
| 20260505191832 | 59 | 17 | 4.0 | 6.0 | 0.12 | 0.24 | 0.05 | 83 | 1012.3 |
| 20260505191343 | 58 | 34 | 3.0 | 6.0 | 0.12 | 0.24 | 0.05 | 83 | 1012.2 |
| 20260505190849 | 59 | 42 | 2.0 | 4.0 | 0.16 | 0.24 | 0.05 | 83 | 1012.2 |
| 20260505190341 | 59 | 90 | 1.0 | 5.0 | 0.24 | 0.24 | 0.05 | 83 | 1012.4 |
| 20260505185837 | 60 | 92 | 2.0 | 5.0 | 0.24 | 0.24 | 0.05 | 83 | 1012.4 |
| 20260505185331 | 60 | 32 | 0.0 | 3.0 | 0.20 | 0.20 | 0.04 | 82 | 1012.4 |
| 20260505184332 | 60 | 347 | 0.0 | 5.0 | 0.16 | 0.16 | 0.03 | 80 | 1012.7 |
| 20260505183836 | 60 | 351 | 2.0 | 5.0 | 0.16 | 0.16 | 0.03 | 79 | 1012.8 |
| 20260505183329 | 60 | 25 | 3.0 | 5.0 | 0.16 | 0.16 | 0.03 | 78 | 1012.6 |
| 20260505182836 | 60 | 17 | 2.0 | 6.0 | 0.12 | 0.12 | 0.02 | 78 | 1012.5 |
| 20260505182346 | 61 | 19 | 4.0 | 7.0 | 0.12 | 0.12 | 0.02 | 77 | 1012.4 |
| 20260505180831 | 62 | 329 | 4.0 | 11.0 | 0.08 | 0.08 | 0.02 | 73 | 1012.5 |
| 20260505180342 | 63 | 288 | 5.0 | 11.0 | 0.00 | 0.00 | 0.00 | 70 | 1012.3 |
| 20260505175840 | 63 | 313 | 4.0 | 11.0 | 0.00 | 0.98 | 0.00 | 69 | 1012.0 |
| 20260505175335 | 63 | 320 | 6.0 | 13.0 | 0.00 | 0.98 | 0.00 | 68 | 1011.9 |